This is the latest recevied weather packets stored in our database for station/object WZ9ZZZ-1. If no packets are shown the sender has not sent any weather packets the latest 10 day(s).
| Time | Temp. | Humidity | Pressure | Rain* | Wind** | Luminosity | Snow |
|---|---|---|---|---|---|---|---|
| 1777388174 | 28.33° C | 80% | 1018.1 hPa | 0 mm | - | 453 W/m² | - |
| 1777387870 | 27.22° C | 80% | 1018 hPa | 0 mm | - | 366 W/m² | - |
| 1777387567 | 27.22° C | 80% | 1018.1 hPa | 0 mm | - | 212 W/m² | - |
| 1777387263 | 27.78° C | 80% | 1018.1 hPa | 0 mm | - | 323 W/m² | - |
| 1777386957 | 27.78° C | 80% | 1018 hPa | 0 mm | - | 339 W/m² | - |
| 1777386655 | 27.78° C | 81% | 1017.8 hPa | 0 mm | - | 379 W/m² | - |
| 1777386352 | 27.22° C | 81% | 1017.9 hPa | 0 mm | - | 369 W/m² | - |
| 1777386050 | 27.22° C | 81% | 1018.1 hPa | 0 mm | - | 337 W/m² | - |
| 1777385746 | 27.22° C | 82% | 1018.2 hPa | 0 mm | - | 311 W/m² | - |
| 1777385443 | 27.22° C | 82% | 1018.3 hPa | 0 mm | - | 298 W/m² | - |
| 1777385139 | 27.22° C | 83% | 1018.1 hPa | 0 mm | - | 233 W/m² | - |
| 1777384835 | 26.67° C | 84% | 1017.8 hPa | 0 mm | - | 194 W/m² | - |
| 1777384532 | 26.67° C | 85% | 1018 hPa | 0 mm | - | 173 W/m² | - |
| 1777384227 | 26.67° C | 84% | 1017.8 hPa | 0 mm | - | 152 W/m² | - |
| 1777383923 | 27.22° C | 84% | 1017.7 hPa | 0 mm | - | 178 W/m² | - |
| 1777383619 | 26.67° C | 85% | 1017.9 hPa | 0 mm | - | 247 W/m² | - |
| 1777383316 | 26.67° C | 87% | 1018 hPa | 0 mm | - | 159 W/m² | - |
| 1777383013 | 26.11° C | 88% | 1017.9 hPa | 0 mm | - | 189 W/m² | - |
| 1777382709 | 26.11° C | 88% | 1017.8 hPa | 0 mm | - | 161 W/m² | - |
| 1777382404 | 26.11° C | 89% | 1017.6 hPa | 0 mm | - | 137 W/m² | - |
| 1777382101 | 25.56° C | 90% | 1017.4 hPa | 0 mm | - | 119 W/m² | - |
| 1777381797 | 25.56° C | 91% | 1017.5 hPa | 0 mm | - | 106 W/m² | - |
| 1777381490 | 25.56° C | 91% | 1017.3 hPa | 0 mm | - | 95 W/m² | - |
| 1777381187 | 25° C | 92% | 1017.5 hPa | 0 mm | - | 74 W/m² | - |
| 1777380884 | 25° C | 92% | 1017.5 hPa | 0 mm | - | 61 W/m² | - |
* Rain latest hour (hover to see other rain measurements)
** Current wind speed in m/s (hover to see current wind gust speed)